Location: Caf�
(12.0333°N, 61.7333°W)
Time: 09:28:21
(UTC+00:00)

Daily predictions for brighter satellites

Satellite Brightness Start Highest point End
(mag) Time Altitude Azimuth Time Altitude Azimuth Time Altitude Azimuth
Cosmos 2251 Rocket 4.4 22:45:18 10° NNE 22:49:51 30° ENE 22:54:24 10° SE
Cosmos 1733 Rocket 4.0 22:47:32 10° NNE 22:51:12 27° E 22:54:51 10° SE
STARLINK-1151 3.7 22:48:33 10° NNW 22:52:39 66° NE 22:56:45 10° SE
STARLINK-1133 3.6 22:53:29 10° NNW 22:57:36 77° NE 23:01:43 10° SE
CZ-4 R/B 1.5 22:54:15 10° SSE 22:58:25 85° E 23:02:38 10° N
Starlink 7 placeholder 3.5 22:56:35 10° S 22:58:37 22° SE 23:00:32 10° ENE
Hubble Space Telescope 3.5 22:59:16 10° N 23:00:03 10° NNE 23:00:51 10° NNE
OE (NEXTSAT) 4.3 22:57:19 10° SW 23:00:48 81° SE 23:04:17 10° NE
STARLINK-1139 3.6 22:58:26 10° NW 23:02:33 89° NE 23:06:41 10° SE
Cosmos 1500 4.0 23:03:16 10° NNW 23:07:00 55° W 23:10:43 10° S
STARLINK-1174 3.7 23:03:24 10° NW 23:07:31 79° SW 23:11:39 10° SSE
CZ-2D R/B 3.3 23:03:52 10° S 23:07:43 82° WSW 23:11:36 10° NNW
TOS 3.4 23:06:48 10° SW 23:09:08 42° SSE 23:13:39 10° E
ASC 2 Rocket 3.7 23:05:01 10° SW 23:09:12 44° SSE 23:14:48 10° E
Cosmos 1461 3.3 23:05:42 10° S 23:09:13 33° ESE 23:12:52 10° NE
Milstar 3 Cent rocket 2.7 23:04:48 10° SW 23:09:55 61° SSE 23:18:59 10° ENE
Cosmos 1420 Rocket 4.3 23:05:10 10° S 23:10:04 42° E 23:14:57 10° NNE
Cosmos 1452 Rocket 4.4 23:06:13 10° SSE 23:10:31 26° E 23:14:50 10° NE
CZ-2C R/B 4.2 23:08:01 11° SE 23:12:14 27° ENE 23:16:50 10° NNE
STARLINK-1149 3.9 23:08:22 10° NW 23:12:28 69° SW 23:16:28 11° SSE
Tsikada Rocket 4.3 23:07:04 10° SSE 23:12:53 42° E 23:18:38 10° NNE
Meteor 1-18 Rocket 4.4 23:08:27 10° SSE 23:13:46 49° E 23:19:07 10° NNE
NOSS 2-2 (E) 4.2 23:10:19 10° S 23:13:48 25° ESE 23:16:53 10° ENE
Meteor 2-11 Rocket 4.4 23:09:25 10° N 23:15:28 71° E 23:21:29 10° S
HJ-1C 3.9 23:13:18 13° SE 23:15:56 37° ENE 23:19:00 10° N
Ariane H10 4.3 22:40:41 10° W 23:16:02 46° SSW 23:20:38 15° SE
CZ-2C R/B 3.6 23:12:09 10° NE 23:16:52 28° E 23:21:31 10° SSE
Cosmos 1607 4.4 23:10:56 10° N 23:17:02 44° ENE 23:22:01 15° SE
Cosmos 1703 Rocket 3.6 23:12:55 10° S 23:17:09 55° E 23:21:22 10° NNE
GPS 2-14 Rocket1 3.5 23:13:28 10° SW 23:17:15 33° SSE 23:19:42 18° ESE
CSL-04 Debris 4.1 23:11:59 10° SSE 23:17:21 76° ENE 23:22:43 10° N
STARLINK-1180 4.1 23:13:23 10° NW 23:17:27 57° SW 23:21:16 11° SSE
Cosmos 1536 2.7 23:17:36 10° N 23:21:38 72° E 23:25:40 10° S
STARLINK-1153 4.4 23:18:26 10° NW 23:22:25 49° SW 23:26:04 12° SSE
ATLAS V CENTAUR R/B 3.2 23:21:58 10° SSW 23:23:07 19° SSE 23:23:07 19° SSE
BREEZE-M DEB (TANK) 2.2 23:21:56 10° SSW 23:24:53 39° SE 23:25:41 27° E
DELTA 2 R/B (1) 4.2 23:20:04 10° WNW 23:25:24 49° SW 23:29:49 15° SSE
Cosmos 1666 2.7 23:24:31 10° N 23:28:18 82° W 23:32:05 10° S
Meteor 1-11 Rocket 4.2 23:26:08 10° NNW 23:31:34 62° W 23:37:00 10° S
Cosmos 1515 3.9 23:28:17 12° SSE 23:31:41 48° E 23:35:21 10° NNE
DMSP B5D2-2 4.3 23:28:00 10° NNE 23:33:00 44° E 23:37:58 10° S
MOS 1 Rocket 3.1 23:30:53 10° NNE 23:35:03 54° E 23:39:18 10° S
USA 267 3.6 23:33:21 21° ESE 23:37:39 52° NE 23:43:57 10° NNW
Cosmos 1891 Rocket 4.5 23:32:05 10° N 23:38:24 78° E 23:44:49 10° S
NOSS 2-2 (C) 3.6 23:34:25 10° S 23:38:28 41° ESE 23:41:55 10° NE
Cosmos 44 Rocket 3.5 23:34:42 10° N 23:39:35 55° ENE 23:42:00 29° SE
Cosmos 2278 Rocket 3.6 23:40:44 10° SW 23:46:01 41° WNW 23:51:18 10° N
Cosmos 1908 Rocket 3.8 23:42:35 10° N 23:46:53 48° E 23:48:05 38° SE
Mugunghwa Rocket 4.5 23:39:17 10° WNW 23:47:02 90° SSW 23:51:56 28° ESE
SL-4 R/B 2.1 23:42:56 10° SSW 23:47:14 66° SE 23:51:49 10° NE
STPSAT 2 (USA 217) 4.5 23:43:55 10° NNW 23:48:29 79° ENE 23:50:31 33° SSE
STARLINK-1135 4.4 23:45:56 10° NNW 23:49:42 34° NE 23:50:12 33° ENE
Centaur Rocket 3.4 23:41:26 10° WSW 23:50:56 66° SSE 23:52:11 42° ESE
Cosmos 371 Rocket 3.2 23:47:09 10° SSW 23:51:58 88° ESE 23:56:48 10° NNE
STARLINK-1141 4.2 23:50:48 10° NNW 23:54:41 39° NE 23:54:58 39° ENE
Okean 1-7 4.0 23:51:19 10° SSW 23:55:26 45° W 23:59:31 10° NNW
